EPGD Weather Reports


Display with metric or nautical units.
time (UTC)temp
F
wind
direction
speed
MPH
gust
MPH
rain 1hr
in
rain 24hr
in
rain mn
in
humidity
%
barometer
mb
20260905213504 55 260 13.0 0.0 0.00 0.00 0.00 93 1010.0
20260905210503 55 260 15.0 0.0 0.00 0.00 0.00 93 1010.0
20260905203503 55 260 13.0 0.0 0.00 0.00 0.00 93 1010.0
20260905200504 55 260 15.0 0.0 0.00 0.00 0.00 93 1010.0
20260905193504 55 260 12.0 0.0 0.00 0.00 0.00 93 1010.0
20260905190504 55 260 14.0 0.0 0.00 0.00 0.00 93 1010.0
20260905183503 55 260 15.0 0.0 0.00 0.00 0.00 87 1010.0
20260905180504 55 260 16.0 0.0 0.00 0.00 0.00 87 1010.0
20260905173504 55 250 14.0 0.0 0.00 0.00 0.00 87 1010.0
20260905170504 57 260 17.0 0.0 0.00 0.00 0.00 76 1009.0
20260905163503 57 260 18.0 0.0 0.00 0.00 0.00 76 1009.0
20260905160504 59 260 18.0 0.0 0.00 0.00 0.00 76 1009.0
20260905153503 59 260 16.0 0.0 0.00 0.00 0.00 72 1009.0
20260905150503 57 250 15.0 0.0 0.00 0.00 0.00 82 1009.0
20260905143503 57 250 16.0 0.0 0.00 0.00 0.00 82 1009.0
20260905140504 57 260 15.0 0.0 0.00 0.00 0.00 82 1009.0
20260905133503 59 270 22.0 0.0 0.00 0.00 0.00 76 1009.0
20260905130504 60 270 22.0 0.0 0.00 0.00 0.00 72 1009.0
20260905123503 60 270 22.0 0.0 0.00 0.00 0.00 72 1009.0
20260905120504 60 260 22.0 0.0 0.00 0.00 0.00 77 1008.0
20260905113503 59 270 22.0 0.0 0.00 0.00 0.00 82 1008.0
20260905110504 59 270 16.0 0.0 0.00 0.00 0.00 82 1008.0
20260905103504 59 280 18.0 0.0 0.00 0.00 0.00 87 1008.0
20260905100504 60 270 17.0 0.0 0.00 0.00 0.00 82 1007.0
20260905093504 60 280 28.0 0.0 0.00 0.00 0.00 77 1007.0
20260905090504 60 270 24.0 0.0 0.00 0.00 0.00 72 1006.0
20260905083504 60 280 23.0 0.0 0.00 0.00 0.00 72 1006.0
20260905080504 60 280 24.0 0.0 0.00 0.00 0.00 77 1006.0
20260905073504 57 270 23.0 0.0 0.00 0.00 0.00 87 1005.0
20260905070504 57 270 17.0 0.0 0.00 0.00 0.00 87 1005.0
20260905063504 57 260 23.0 0.0 0.00 0.00 0.00 87 1005.0
20260905060503 57 250 20.0 0.0 0.00 0.00 0.00 87 1004.0
20260905053504 57 250 20.0 0.0 0.00 0.00 0.00 87 1004.0
20260905050504 57 260 20.0 0.0 0.00 0.00 0.00 87 1004.0
20260905043504 57 250 15.0 0.0 0.00 0.00 0.00 87 1003.0
20260905040504 57 260 18.0 0.0 0.00 0.00 0.00 87 1003.0
20260905033504 57 260 20.0 0.0 0.00 0.00 0.00 87 1003.0
20260905030504 57 270 20.0 0.0 0.00 0.00 0.00 87 1002.0
20260905023504 57 270 22.0 0.0 0.00 0.00 0.00 87 1002.0
20260905020504 57 270 25.0 0.0 0.00 0.00 0.00 87 1002.0
20260905013503 57 270 24.0 0.0 0.00 0.00 0.00 87 1001.0
20260905010504 59 270 25.0 0.0 0.00 0.00 0.00 87 1001.0
20260905003503 59 270 25.0 0.0 0.00 0.00 0.00 93 1001.0
20260905000503 60 270 25.0 0.0 0.00 0.00 0.00 87 1000.0
20260904233504 60 260 21.0 0.0 0.00 0.00 0.00 87 1000.0
20260904230503 60 250 12.0 0.0 0.00 0.00 0.00 93 1000.0
20260904223503 60 230 9.0 0.0 0.00 0.00 0.00 93 1000.0
20260904220504 60 260 12.0 0.0 0.00 0.00 0.00 93 1000.0